Flag for Dominican Republic Weather past 2 weeks in Santiago de los Caballeros, Dominican Republic

73 °F

Mostly cloudy.

Feels Like: 73 °F
Forecast: 70 / 77 °F
Wind: 5 mph from Southeast

Location: Santiago

Current Time: Nov 29, 2015 at 12:23:22 AM

Latest Report: Nov 28, 2015 at 11:00 PM

Visibility: N/A

Pressure: 29.92 "Hg

Humidity: 83%

Dew point: 68 °F

Location of Santiago de los CaballerosLocation

Historic Weather in Santiago de los Caballeros — Graph


Santiago de los Caballeros temperature yesterday

Maximum temperature yesterday: 81 °F (at 12:00 PM)
Minimum temperature yesterday: 68 °F (at 2:00 AM)
Average temperature yesterday: 74 °F

Past Weeks' High & Low Weather Summary

High90 °F (Nov 23, 3:00 PM)100% (Nov 14, 1:00 AM)30.07 "Hg (Nov 14, 1:00 AM)
Low64 °F (Nov 21, 8:00 AM)43% (Nov 23, 3:00 PM)29.80 "Hg (Nov 28, 4:00 AM)
Average76 °F83%29.94 "Hg
* Reported Nov 13 11:00 PM — Nov 28 11:00 PM, Santiago de los Caballeros, Weather by CustomWeather, © 2015

Note: Actual official high and low records may vary slightly from our data, if they occured in-between our weather recording intervals... More about our weather records


Santiago de los Caballeros weather history for previous 24 hours

Time TempWeatherWind HumidityBarometerVisibility
11:00 PM
Sat, Nov 28
73 °FMostly cloudy.5 mph83%29.92 "HgN/A
10:00 PM73 °FMostly cloudy.6 mph89%29.89 "HgN/A
9:00 PM73 °FPartly cloudy.6 mph89%29.92 "HgN/A
7:00 PM75 °FPassing clouds.9 mph83%29.89 "HgN/A
6:00 PM79 °FPartly sunny.5 mph74%29.86 "HgN/A
5:00 PM79 °FPartly sunny.3 mph74%29.83 "HgN/A
4:00 PM81 °FPartly sunny.5 mph66%29.83 "HgN/A
3:00 PM81 °FPartly sunny.7 mph66%29.83 "HgN/A
2:00 PM81 °FPartly sunny.9 mph70%29.89 "HgN/A
1:00 PM81 °FPartly sunny.9 mph70%29.89 "HgN/A
12:00 PM81 °FPassing clouds.10 mph70%29.92 "HgN/A
11:00 AM79 °FPassing clouds.6 mph70%29.95 "HgN/A
10:00 AM75 °FScattered clouds.No wind83%29.95 "HgN/A
9:00 AM73 °FPartly sunny.No wind89%29.95 "HgN/A
8:00 AM68 °FOvercast.5 mph94%29.92 "HgN/A
7:00 AM68 °FPartly sunny.5 mph100%29.89 "HgN/A
6:00 AM68 °FPassing clouds.6 mph100%29.86 "HgN/A
5:00 AM70 °FPassing clouds.No wind94%29.83 "HgN/A
4:00 AM68 °FPassing clouds.12 mph100%29.80 "HgN/A
3:00 AM68 °FPassing clouds.6 mph100%29.95 "HgN/A
2:00 AM68 °FPassing clouds.No wind100%29.92 "HgN/A
1:00 AM70 °FPassing clouds.No wind100%29.95 "HgN/A
12:00 AM70 °FPassing clouds.No wind100%29.95 "HgN/A
Weather by CustomWeather, © 2015

See weather overviewHow to use our weather pages